This is the latest recevied weather packets stored in our database for station/object W1WRA. If no packets are shown the sender has not sent any weather packets the latest 10 day(s).
| Time | Temp. | Humidity | Pressure | Rain* | Wind** | Luminosity | Snow |
|---|---|---|---|---|---|---|---|
| 1778185518 | 15.56° C | 34% | 1005.6 hPa | 0 mm | - | 132 W/m² | - |
| 1778174117 | 17.22° C | 36% | 1006.7 hPa | 0 mm | - | 930 W/m² | - |
| 1778171715 | 16.67° C | 36% | 1007.2 hPa | 0 mm | - | 962 W/m² | - |
| 1778168727 | 15.56° C | 43% | 1007.4 hPa | 0 mm | - | 825 W/m² | - |
| 1778166389 | 13.89° C | 49% | 1007.8 hPa | 0 mm | - | 871 W/m² | - |
| 1778164529 | 12.78° C | 61% | 1007.8 hPa | 0 mm | - | 90 W/m² | - |
| 1778160330 | 12.22° C | 64% | 1007.9 hPa | 0 mm | - | 251 W/m² | - |
| 1778154936 | 9.44° C | 78% | 1008.3 hPa | 0 mm | - | 31 W/m² | - |
| 1778151316 | 7.78° C | 86% | 1007.8 hPa | 0 mm | - | 18 W/m² | - |
| 1778150117 | 7.78° C | 86% | 1007.5 hPa | 0 mm | - | 24 W/m² | - |
| 1778148937 | 7.78° C | 85% | 1007.6 hPa | 0 mm | - | 14 W/m² | - |
| 1778145318 | 8.33° C | 84% | 1007.7 hPa | 0 mm | - | 0 W/m² | - |
| 1778136321 | 9.44° C | 88% | 1006.8 hPa | 0 mm | - | 0 W/m² | - |
| 1778135721 | 9.44° C | 88% | 1006.9 hPa | 0 mm | - | 0 W/m² | - |
| 1778134521 | 9.44° C | 89% | 1006.8 hPa | 0 mm | - | 0 W/m² | - |
| 1778132721 | 9.44° C | 92% | 1007.4 hPa | 0 mm | - | 0 W/m² | - |
| 1778130921 | 9.44° C | 94% | 1007.3 hPa | 0 mm | - | 0 W/m² | - |
| 1778129122 | 10° C | 91% | 1007 hPa | 0 mm | - | 0 W/m² | - |
| 1778120724 | 13.89° C | 94% | 1006.2 hPa | 0 mm | - | 0 W/m² | - |
| 1778118925 | 14.44° C | 98% | 1005.7 hPa | 0 mm | - | 0 W/m² | - |
| 1778117725 | 14.44° C | 98% | 1005.4 hPa | 0 mm | - | 0 W/m² | - |
| 1778108127 | 14.44° C | 97% | 1005.2 hPa | 0 mm | - | 4 W/m² | - |
| 1778106947 | 15° C | 97% | 1005.2 hPa | 0 mm | - | 7 W/m² | - |
| 1778097355 | 16.11° C | 94% | 1006.1 hPa | 0.51 mm | - | 76 W/m² | - |
| 1778096730 | 16.11° C | 93% | 1006.2 hPa | 0.25 mm | - | 54 W/m² | - |
* Rain latest hour (hover to see other rain measurements)
** Current wind speed in m/s (hover to see current wind gust speed)